Terug naar catalogus

FENGYUN 1C DEB

LostSSO
NORAD 35096·DEBRIS·🇨🇳 China

Gelanceerd May 10, 1999 vanaf Taiyuan Satellite Launch Center

Loading…

Volgende Passages (komende 24 uur)

TLE

VerouderdSource: Space-Track

Epoch: Apr 11, 2013, 16:01 UTC

1 35096U 99025DJY 13101.66788433  .00001134  00000-0  20989-3 0  9999
2 35096  97.6964 253.7564 0171510 282.0120 139.7816 14.58203864264129

Volg FENGYUN 1C DEB in realtime met AllMySat

Download on the App Store